Retour au catalogue

SL-12 DEB

LostHEO
NORAD 29439·DEBRIS·🇷🇺 Russia

Lancé May 31, 1989 depuis Baikonur Cosmodrome

Loading…

Prochains Passages (prochaines 24 heures)

TLE

PériméSource: Space-Track

Époque: Dec 21, 2006, 19:09 UTC

1 29439U 89039CN  06355.79836288  .00039610  00000-0  82577+0 0  9993
2 29439 064.5917 223.4298 5440713 066.0752 340.7472 04.32939619  8237

Suivez SL-12 DEB en temps réel avec AllMySat

Download on the App Store